Simultaneous Nadir Overpasses (SNOs) Predictions

Prediction of SNOs near US between AQUA and NPP Satellite Orbit:

Table of predicted SNOs near US for the next 10.0 days since TLE Epoch: 5/7/2022
Index Date (AQUA) Time (AQUA) AQUA Lat,Lon Date (NPP) Time (NPP) NPP Lat,Lon Distance(km) Time Diff (sec)
1 05/08/2022 20:57:50 49.95,-119.86 05/08/2022 20:49:30 51.63,-122.19 248.67 500
2 05/14/2022 07:34:39 35.32, -83.30 05/14/2022 07:30:33 35.65, -85.04 161.59 246
3 05/14/2022 09:11:00 44.37,-105.15 05/14/2022 09:09:26 44.76,-107.34 179.05 94
